Location: Buckeye Ditch
(40.9104°N, 122.9517°W)
Time: 18:28:27
(UTC+00:00)

SR - Pass Details

Date: 24 May 2025
Orbit: 570 x 855 km, 66.7° (Epoch: 13 June)

Event Time Altitude Azimuth Distance (km) Brightness Sun altitude
Rises 14:44:12 0° 340° (NNW) 3,314 ? 20.0°
Reaches altitude 10° 14:47:25 10° 358° (N) 2,329 ? 20.6°
Maximum altitude 14:51:09 19° 42° (NE) 1,725 ? 21.3°
Drops below altitude 10° 14:54:42 10° 88° (E) 2,187 ? 22.0°
Sets 14:57:35 0° 106° (ESE) 3,043 ? 22.5°
